Wind_Speed
45 45 45 44 44 44 43 42 42 41 40 38 37 36 34 32 30 29 29 30 30 29 27 25 23 22 21 20 19 20 22 25 29 32 33 35 40 43 45 47 47 48 48 48 48 46 44 43 42 41 41 40 39 38 37 36 35 35 34 33 32 31 31 30 29 29 28 28 28 28 28 28 29 30 30 30 29 29 28 27 25 22 18 17 19 22 24 25
47 47 47 46 46 45 45 45 44 43 42 41 40 39 37 36 34 32 31 31 31 31 30 29 27 25 24 23 22 21 22 23 26 29 30 32 37 41 43 45 46 47 48 49 49 48 46 46 45 44 43 42 41 40 39 38 37 36 35 34 34 33 33 32 31 30 30 30 30 30 29 30 30 30 30 29 28 28 26 25 22 18 15 16 19 22 23 24
49 49 49 48 48 47 47 47 46 46 45 44 43 42 41 39 38 36 34 32 33 33 33 32 31 29 28 27 25 24 23 24 25 26 28 29 32 36 39 41 44 46 48 49 48 48 47 46 46 46 45 44 43 42 41 40 39 38 36 36 35 35 34 33 32 32 32 31 31 30 30 30 30 30 29 28 27 26 24 22 18 14 14 16 19 21 22 23
51 51 51 50 50 50 49 49 48 48 47 47 46 45 44 42 41 40 38 36 34 34 35 35 34 32 31 30 29 27 26 26 26 26 26 27 28 31 35 36 39 43 46 48 48 47 47 47 47 47 46 46 45 44 43 43 41 40 39 37 37 36 35 34 34 33 32 32 31 31 31 31 31 30 28 27 26 24 22 18 13 11 14 16 18 20 21 23
52 52 52 52 52 51 51 51 50 50 49 49 48 47 46 45 44 43 41 40 38 37 36 37 37 35 34 34 32 31 29 28 29 27 25 26 26 28 31 32 35 40 43 45 46 46 46 47 47 46 46 46 45 45 44 44 42 41 40 39 38 37 36 35 34 34 33 33 33 32 32 31 30 28 27 26 24 21 18 13 10 11 14 15 17 19 20 22
52 52 53 53 53 53 53 52 52 52 51 50 50 50 49 48 47 46 45 43 42 40 39 38 39 38 37 36 36 35 33 32 31 29 27 27 27 26 29 31 32 36 40 42 43 45 45 46 46 46 46 46 46 45 45 44 42 41 40 39 38 38 37 35 35 35 34 34 33 33 32 30 28 26 25 23 21 17 12 8 8 11 13 14 16 18 20 22
52 52 53 53 54 54 54 53 53 53 52 52 52 52 51 50 49 49 48 47 45 44 42 41 41 41 40 39 39 38 36 36 33 31 31 30 29 27 27 29 30 32 35 37 40 41 42 42 44 45 45 46 46 45 45 43 42 41 40 39 39 39 38 36 36 35 34 34 33 32 29 27 25 24 22 20 16 12 7 5 8 10 12 14 15 17 19 21
52 53 54 54 54 54 54 55 55 55 54 53 53 54 53 52 52 51 50 49 48 47 46 45 44 43 43 42 41 40 39 39 36 34 35 34 31 29 28 28 29 30 31 33 35 37 39 40 40 42 43 43 42 43 43 43 42 41 40 39 39 38 38 37 36 35 34 32 31 29 26 24 22 20 18 15 11 7 3 5 8 9 11 13 15 17 18 20
54 54 55 55 55 55 55 56 56 56 55 55 55 55 55 54 53 53 53 52 51 50 49 48 47 46 45 45 44 43 41 40 39 38 38 37 35 33 30 30 30 30 31 30 31 33 37 38 37 37 37 35 35 38 40 40 39 37 37 38 38 37 37 36 36 34 31 28 27 25 23 21 19 16 14 10 8 5 3 4 6 9 11 13 15 16 18 19
56 56 57 57 57 57 57 57 57 57 56 56 56 57 56 56 55 54 54 54 53 53 53 52 50 49 48 47 47 45 43 43 42 41 41 40 39 36 34 33 32 32 31 31 30 31 32 32 30 31 30 29 30 35 37 36 33 32 34 36 35 34 33 33 33 31 27 25 23 22 20 17 15 12 10 8 6 4 3 3 5 8 10 12 14 15 17 18
59 59 59 60 60 59 59 59 59 59 58 57 58 58 58 58 57 56 56 55 55 55 55 54 53 53 51 50 48 47 46 46 46 45 44 43 42 40 37 36 35 34 33 33 32 30 28 27 27 28 29 29 29 33 34 30 26 28 31 32 31 30 29 30 30 28 25 22 21 19 15 13 12 9 7 6 6 5 3 3 4 7 9 11 13 15 16 17
59 60 61 61 62 62 61 61 61 61 60 60 60 60 60 59 59 58 57 57 57 58 57 57 56 56 55 54 50 50 50 49 48 47 46 46 46 44 41 39 38 37 36 35 33 31 28 27 28 27 28 28 27 29 29 23 21 25 28 27 27 28 27 26 26 25 23 21 19 16 13 12 11 9 7 6 5 5 4 3 4 6 8 10 12 14 15 16
60 60 61 62 63 63 63 63 63 63 63 62 62 62 62 62 61 60 59 59 59 60 59 59 59 59 58 57 54 54 53 52 51 50 50 49 49 48 45 42 41 40 39 38 36 34 32 31 30 28 28 27 26 27 26 21 21 24 25 24 25 27 25 23 23 23 22 20 17 14 13 13 11 9 8 7 6 6 5 3 3 5 7 9 11 13 14 16
62 62 62 63 64 64 64 64 65 64 65 64 64 64 64 64 64 63 62 61 61 61 61 61 61 61 60 59 58 58 57 55 54 53 53 53 52 51 49 46 44 44 42 41 39 37 35 33 32 30 30 29 28 29 26 23 23 25 25 23 25 28 24 22 22 21 21 19 16 14 15 14 12 11 10 8 7 6 6 4 3 4 6 8 10 12 13 15
66 65 65 66 67 67 66 66 66 66 66 66 66 66 66 66 66 65 64 64 64 63 63 63 64 63 62 61 61 61 61 58 57 57 57 56 55 54 52 50 48 46 45 43 41 40 38 36 35 34 34 32 29 29 27 25 26 26 26 26 29 29 24 23 23 22 20 18 16 15 16 15 13 13 11 9 8 8 7 5 4 4 5 7 10 11 12 14
70 70 70 70 71 71 70 70 70 70 69 68 68 68 68 68 67 67 66 66 66 66 66 66 66 66 65 64 63 63 64 62 61 60 60 59 58 57 55 54 52 50 48 47 45 43 41 40 39 38 36 34 32 32 30 28 28 28 29 30 32 29 24 25 25 22 21 19 17 16 17 16 15 14 12 10 10 9 8 6 4 5 5 7 9 10 12 13
74 75 75 75 75 76 75 75 75 74 73 73 72 71 70 70 70 69 68 67 67 68 68 69 69 68 67 67 65 65 66 66 65 63 62 62 61 60 59 57 56 54 51 50 48 46 44 43 42 41 39 37 36 35 33 32 32 32 34 35 34 30 26 27 25 22 21 21 18 18 19 18 16 15 13 12 11 10 10 7 5 5 5 6 8 10 11 12
76 76 77 78 79 79 80 80 80 79 78 78 76 75 74 74 73 72 70 68 69 70 70 71 71 71 70 69 68 68 68 69 69 67 66 65 65 64 62 60 58 57 54 52 50 48 47 46 45 43 41 40 39 38 38 39 37 36 37 35 32 29 27 28 25 22 22 22 20 19 20 19 18 17 15 14 12 12 12 8 5 6 5 6 8 9 10 11
76 77 77 78 79 80 81 82 83 83 83 83 82 81 79 79 78 77 74 72 71 71 72 72 73 73 73 72 71 70 70 71 71 70 69 69 68 67 65 63 61 59 57 55 53 52 51 51 48 45 44 45 45 44 44 43 39 37 36 33 30 29 28 29 26 23 23 23 22 22 21 20 20 19 17 15 14 14 13 9 6 7 6 6 8 9 10 10
74 76 77 77 78 80 81 82 83 83 84 85 85 85 84 84 83 82 80 76 75 75 75 74 75 75 75 75 75 74 73 72 73 73 72 72 72 70 69 66 64 62 59 58 58 57 56 53 49 49 51 52 50 48 46 44 41 39 38 35 33 31 30 30 28 26 25 26 26 24 22 23 23 21 18 16 16 17 14 9 9 9 8 7 8 9 10 9
71 73 75 76 77 78 80 81 82 83 84 85 86 86 87 87 87 87 86 83 80 79 79 78 77 77 76 77 77 77 76 74 74 75 75 75 75 73 72 70 67 64 62 62 62 61 58 53 53 56 56 54 52 50 48 47 45 43 40 39 37 35 33 32 30 29 28 29 29 26 25 25 24 22 19 18 20 19 13 11 12 12 10 9 9 10 10 10
71 72 73 74 75 76 77 79 80 82 83 84 85 86 87 88 88 89 89 88 85 83 83 82 81 80 80 79 79 79 78 77 76 76 77 77 77 76 74 73 70 67 67 66 64 62 58 56 60 61 58 57 55 53 51 50 49 46 43 42 41 40 38 35 33 32 30 31 32 29 26 26 25 23 22 22 23 19 15 14 15 14 13 11 11 11 11 10
75 75 76 76 75 75 76 78 79 80 81 82 83 85 87 88 89 89 90 91 89 87 87 87 86 84 84 83 81 81 81 79 78 78 79 79 79 78 77 75 73 72 70 68 66 64 60 62 66 63 60 61 58 56 55 53 51 49 47 46 46 46 44 38 36 34 33 33 34 32 29 28 26 25 25 26 23 19 17 17 18 17 15 14 13 12 12 11
80 80 80 81 80 79 79 80 80 80 80 81 81 82 84 86 87 88 89 91 91 89 89 90 90 89 88 87 85 85 84 82 81 80 81 81 81 80 78 78 77 75 73 71 70 67 65 69 69 63 63 64 60 59 57 55 54 52 51 50 51 51 48 43 39 37 36 36 36 34 32 30 28 28 28 26 22 21 21 21 21 19 17 16 15 14 14 12
83 84 84 85 84 83 84 84 84 84 83 83 82 83 83 84 85 86 87 88 90 91 91 91 91 92 92 92 90 89 88 86 84 83 83 83 83 82 81 80 79 77 76 75 74 71 70 73 70 65 66 66 62 60 58 58 58 56 54 55 56 56 52 47 42 40 39 38 38 36 33 32 32 31 29 26 23 24 25 24 23 21 20 19 17 16 15 13
84 85 86 86 87 86 86 87 88 88 87 87 86 86 86 86 86 86 85 86 88 89 91 91 91 93 94 95 95 94 92 91 89 86 85 85 85 85 84 83 81 80 80 79 78 74 74 75 72 68 69 67 65 62 61 61 60 57 58 60 61 59 55 51 47 44 41 40 41 38 36 36 34 33 31 28 26 27 29 28 25 24 23 21 19 18 16 14
83 84 84 85 86 86 86 87 88 89 89 89 89 89 89 89 89 89 88 88 88 88 88 89 91 93 94 96 98 99 98 96 93 91 89 88 87 87 87 85 84 83 82 82 79 76 76 78 74 71 71 70 66 64 64 64 62 62 64 64 63 62 59 56 51 47 45 44 43 40 38 38 37 36 34 31 30 30 32 32 29 28 26 22 21 19 17 15
81 82 82 82 83 83 83 84 86 86 87 88 88 89 90 90 91 92 92 92 91 91 89 88 89 91 93 97 100 101 102 100 98 96 94 92 90 89 89 88 87 85 85 84 80 77 80 81 77 75 75 72 69 69 70 68 66 68 69 66 65 65 62 59 55 50 48 47 43 40 39 38 38 40 38 35 32 33 37 37 32 30 28 24 22 20 18 17
79 79 79 80 80 80 81 82 83 84 85 85 86 87 88 88 89 91 92 94 94 94 93 91 90 90 92 96 100 102 103 103 102 101 99 96 95 93 91 90 89 88 87 85 82 81 84 83 80 79 77 74 74 75 74 71 70 73 72 68 68 68 64 61 56 53 51 47 42 41 40 38 40 42 40 37 36 38 42 39 33 32 29 25 24 21 20 19
75 75 75 76 77 77 78 79 80 82 84 84 85 86 87 87 88 89 91 93 94 95 96 95 94 94 94 96 98 102 104 105 105 105 103 101 99 97 96 93 92 90 89 87 85 84 86 85 83 80 77 77 79 79 77 74 74 76 74 70 70 69 66 62 58 55 51 45 42 43 42 39 40 42 40 40 42 43 42 38 34 33 30 27 26 24 22 21
71 70 70 71 72 73 74 75 76 77 79 81 82 83 84 85 87 88 90 92 93 95 97 98 98 98 98 98 98 100 103 105 107 107 107 106 104 102 100 98 95 93 91 89 87 86 88 87 83 80 78 80 81 80 79 77 76 77 74 72 71 70 68 64 59 55 49 42 43 46 44 40 39 42 42 45 46 42 40 38 36 35 32 30 28 25 24 22
67 66 66 67 68 69 70 71 72 72 73 75 76 77 79 80 82 84 86 88 90 92 96 98 100 101 101 102 102 101 102 105 107 108 108 108 108 107 105 102 99 96 94 91 89 88 89 88 85 83 82 83 83 82 80 78 77 76 75 74 73 71 70 66 61 56 49 44 44 46 45 39 38 43 45 47 46 42 41 40 38 36 34 33 30 27 25 22
63 63 62 63 64 64 65 67 68 67 67 68 70 71 73 74 76 78 80 82 84 87 90 93 97 101 102 104 105 104 104 104 106 109 110 110 110 110 109 106 103 100 97 94 93 91 90 90 88 86 85 85 84 83 80 78 77 76 75 75 73 72 70 67 63 59 53 47 45 47 46 39 38 45 48 49 48 45 43 42 39 38 37 34 31 29 26 24
61 60 59 59 59 60 60 61 62 63 62 62 64 65 67 68 70 72 75 77 79 82 85 87 91 95 100 103 105 107 107 106 106 108 110 112 112 112 111 110 108 105 101 98 97 95 93 92 89 87 86 85 84 83 81 80 79 78 77 76 75 73 71 69 67 63 57 51 48 48 46 41 40 45 51 53 51 46 44 43 41 40 38 35 32 30 28 27
57 56 55 54 54 55 56 56 57 58 58 58 58 60 61 63 64 66 69 71 74 77 80 83 86 89 94 99 103 106 108 108 107 107 109 112 113 113 113 112 111 109 106 103 101 98 96 94 91 88 87 86 86 85 83 83 82 80 79 78 76 73 72 72 70 68 63 57 52 49 46 43 41 46 53 55 51 46 45 45 42 40 39 36 33 31 30 30
54 52 52 51 50 50 50 50 51 52 53 53 53 54 56 57 58 60 62 65 68 71 75 79 82 85 89 94 98 102 105 107 109 109 109 110 113 115 114 114 113 113 111 108 104 101 99 97 94 91 89 88 88 87 86 85 83 81 80 77 73 72 73 74 72 70 66 60 56 52 49 47 46 49 55 55 50 49 48 47 44 41 39 36 33 33 32 31
52 49 48 46 46 45 45 44 45 45 46 47 48 49 50 52 53 54 56 58 61 65 69 73 77 81 86 90 94 98 101 104 107 110 110 110 112 114 116 116 115 114 114 112 108 105 102 99 97 95 92 91 90 89 88 87 85 83 81 76 75 76 77 76 73 71 67 61 57 54 53 51 48 51 57 55 51 50 48 47 45 42 39 36 35 35 34 33
49 47 44 42 41 41 39 39 39 39 40 40 41 42 43 45 47 49 50 52 55 58 63 67 72 77 82 86 90 94 98 101 104 108 111 111 111 113 115 117 117 116 115 114 112 109 106 103 101 98 96 94 93 91 91 90 88 86 83 80 80 80 79 76 73 70 66 61 57 55 55 52 47 51 58 55 51 52 49 47 45 41 39 37 36 36 35 35
46 43 41 39 37 36 35 34 34 34 34 34 34 35 37 38 41 44 46 48 50 53 57 62 66 71 76 81 87 91 95 99 102 106 109 111 112 113 114 116 118 117 116 115 114 112 110 108 105 102 100 98 96 95 94 92 91 89 86 84 84 82 79 77 74 71 68 62 57 56 56 52 48 52 58 56 53 53 51 48 45 42 40 38 37 37 37 36
43 39 37 36 34 32 31 30 30 30 29 29 29 30 32 33 36 39 42 44 47 49 52 57 62 66 70 76 82 87 92 96 100 103 107 109 112 113 114 115 117 118 118 117 115 113 112 111 109 106 104 102 99 98 97 95 93 92 89 87 86 83 80 78 75 71 69 65 60 58 58 54 52 54 58 58 55 54 52 49 46 44 42 40 39 38 38 38
41 38 35 34 32 31 31 30 29 28 28 27 27 28 29 30 32 35 38 41 44 47 50 53 57 62 66 71 77 82 88 93 97 101 104 107 110 112 113 115 116 118 118 118 117 115 114 113 111 110 108 106 103 100 99 98 96 94 91 88 86 82 80 78 74 70 68 64 59 59 58 56 55 55 57 58 57 55 54 52 49 45 43 42 41 39 38 38
39 36 34 33 32 32 32 31 30 29 28 27 27 27 27 28 29 31 34 37 41 44 47 51 54 59 63 67 72 77 83 88 93 98 101 104 107 110 112 114 115 117 118 119 118 117 115 114 113 113 112 109 106 104 103 101 99 97 94 90 87 84 81 78 73 70 68 64 60 59 57 55 56 56 57 59 59 57 55 53 50 47 45 43 42 41 40 40
37 35 34 32 31 32 32 30 29 29 28 27 27 27 27 27 28 29 32 35 38 41 45 48 52 56 59 64 68 72 77 82 88 94 98 102 105 108 110 113 115 116 117 118 119 118 117 115 114 114 114 113 111 110 107 105 102 100 97 93 90 87 83 78 74 71 69 66 62 60 56 55 57 58 58 61 62 59 56 53 51 48 46 45 43 42 42 42
37 35 33 32 31 32 31 29 28 29 28 28 27 26 26 27 28 29 31 33 36 39 42 46 50 53 56 60 64 68 71 76 81 88 93 98 102 105 108 111 113 115 116 117 119 119 118 117 116 115 115 116 116 115 111 109 106 102 99 96 93 89 85 80 76 73 71 67 64 60 56 56 60 60 59 62 63 61 57 54 52 49 47 46 45 44 43 43
36 34 33 33 33 32 31 28 27 28 29 28 27 26 26 27 28 29 31 33 35 37 40 42 46 50 53 56 59 63 67 71 75 80 87 93 98 102 105 108 111 114 115 116 118 118 118 118 117 117 117 118 118 117 113 111 108 105 101 98 95 92 87 82 79 76 72 68 65 61 58 59 63 63 61 62 64 63 59 56 53 50 48 46 45 44 43 43
36 34 33 33 33 33 32 29 28 28 29 28 27 26 27 28 29 30 32 33 34 36 38 39 41 45 49 52 55 59 62 66 69 74 79 86 93 97 102 106 109 111 114 115 117 118 118 118 118 118 119 119 118 116 113 112 110 107 104 100 97 93 89 85 82 78 73 69 66 63 60 62 66 65 63 63 64 65 62 57 54 51 48 47 45 44 44 44
35 34 33 32 32 33 32 29 28 29 30 29 28 27 28 29 30 32 33 33 33 34 36 37 37 39 43 47 51 55 58 60 64 69 73 79 86 92 98 103 106 109 111 114 115 116 117 118 119 119 119 119 118 116 114 113 113 110 107 103 100 95 91 87 83 79 75 71 67 64 63 65 68 68 66 64 65 66 63 57 54 51 49 48 47 46 46 45
34 32 32 32 32 32 31 29 27 29 30 30 29 28 29 31 32 33 34 33 32 31 33 34 34 35 38 42 47 50 53 56 59 64 68 73 79 87 93 99 103 106 108 111 114 115 116 117 119 119 119 120 120 117 114 113 113 112 110 106 103 99 94 89 84 80 76 72 69 67 66 68 72 72 69 67 66 66 63 58 54 51 49 49 48 47 46 44
33 31 31 32 32 33 32 29 27 28 30 30 29 29 31 34 35 35 33 32 31 29 29 30 31 32 34 38 42 45 49 52 55 60 64 68 73 81 88 94 99 103 105 108 111 113 115 116 117 118 118 119 120 118 115 114 114 113 111 108 106 102 97 91 86 82 78 74 71 69 68 71 76 75 72 69 66 65 63 58 53 51 50 50 49 47 46 45
34 30 30 31 32 33 32 30 27 28 29 30 30 30 32 35 38 38 35 32 30 28 26 27 28 28 29 33 37 40 44 48 51 55 60 64 68 75 82 89 94 99 102 105 108 111 114 115 116 117 118 118 119 119 117 115 114 113 111 109 108 104 99 94 89 85 81 76 74 72 71 75 79 77 73 70 67 66 65 60 55 53 52 52 51 50 49 47
34 31 29 30 32 33 34 33 30 29 29 30 31 31 33 36 39 40 38 35 32 28 25 24 24 24 24 27 32 35 39 43 46 50 55 60 64 69 76 83 89 94 99 102 105 108 111 113 114 115 117 118 119 120 118 115 114 113 111 109 108 105 101 97 92 89 84 79 77 75 74 78 82 77 72 70 69 67 66 62 58 55 55 55 53 52 51 49
34 31 30 29 31 33 34 35 33 30 28 30 32 33 34 37 39 41 40 37 34 29 25 22 21 20 19 22 26 30 34 38 42 46 50 55 59 64 71 77 83 89 94 98 102 105 108 110 112 113 115 117 119 120 118 115 115 113 111 109 107 104 101 99 96 92 87 82 80 78 77 81 83 77 72 71 70 68 67 64 60 58 57 57 56 55 53 50
Wind_Direction
254 255 255 255 256 256 257 257 257 258 259 259 259 259 258 256 255 255 257 259 259 257 254 248 242 238 236 235 236 235 231 227 224 222 221 224 226 227 227 228 228 229 230 231 232 232 232 233 234 236 237 238 240 240 242 244 246 248 249 252 254 257 260 263 267 271 275 278 281 283 287 290 293 296 298 301 303 306 310 313 317 322 333 342 338 334 334 337
256 256 256 256 256 257 257 257 257 258 258 258 258 258 257 257 255 253 252 254 257 257 256 252 247 242 239 236 234 236 237 234 230 224 221 223 226 227 228 229 230 230 231 232 232 232 232 233 234 236 237 239 240 242 244 246 247 249 250 253 256 258 261 264 267 271 274 277 279 282 285 288 291 293 296 299 302 305 309 312 318 326 337 338 335 335 335 341
257 257 257 257 257 257 257 257 257 257 258 258 257 257 256 256 255 254 251 250 252 254 255 254 251 247 243 239 235 233 235 238 237 229 223 223 226 228 228 229 231 231 232 233 233 233 233 234 235 237 238 240 242 244 245 247 248 250 252 255 257 260 262 265 267 270 273 275 277 280 283 286 288 291 294 297 300 304 307 312 319 329 337 336 335 336 338 346
257 257 257 257 257 257 257 257 258 257 257 257 257 256 255 254 254 254 252 249 249 251 253 253 252 249 247 244 239 235 233 236 239 235 229 226 226 229 229 229 231 231 233 234 234 234 235 235 236 237 239 241 243 245 247 248 250 252 254 257 259 261 263 265 267 269 271 273 275 278 281 283 286 289 292 295 298 301 305 312 320 333 338 337 337 337 342 352
258 258 257 257 257 257 257 257 257 257 257 257 256 256 254 253 252 252 252 250 248 248 249 251 251 250 248 246 244 239 235 234 237 237 234 231 228 229 230 228 230 232 232 234 234 234 235 236 236 237 239 241 243 245 247 249 251 253 255 257 260 261 263 264 266 268 269 271 273 276 279 282 285 287 289 292 295 299 304 312 325 336 337 337 338 340 348 357
259 259 258 258 258 257 257 257 257 257 257 256 256 256 255 253 251 251 250 250 249 247 246 248 250 250 249 247 246 243 239 236 236 236 236 235 232 230 232 230 230 233 233 233 234 234 235 236 238 238 240 241 243 244 246 248 250 252 255 257 259 260 261 262 264 266 267 269 272 275 277 280 282 284 286 289 292 296 302 315 333 336 336 339 340 344 353 360
260 260 260 259 259 258 258 258 257 257 257 257 256 256 255 253 251 250 249 249 248 247 245 246 247 248 248 248 246 244 243 240 236 235 236 235 234 232 234 235 233 234 235 235 234 234 234 235 237 238 240 241 243 244 246 247 249 251 253 255 256 258 259 260 261 263 265 267 270 273 275 276 279 281 283 285 287 288 297 323 334 335 337 341 342 348 357 2
261 261 260 260 260 259 259 259 258 258 257 257 257 256 255 253 252 250 249 248 247 247 245 244 244 245 246 247 246 245 244 243 238 237 238 235 234 232 233 237 237 236 236 236 236 234 233 233 234 236 238 241 243 245 246 247 248 249 251 252 253 255 256 258 259 261 263 266 269 270 271 273 275 276 277 278 276 272 291 327 332 335 338 343 344 350 0 3
261 261 261 260 260 259 259 259 258 258 257 257 257 256 255 254 252 251 249 248 247 246 245 243 242 242 243 244 246 245 244 245 241 239 240 237 234 231 230 234 237 240 238 237 237 236 234 232 233 236 238 240 242 244 246 246 246 247 248 249 250 252 255 256 258 259 261 263 266 266 267 269 269 267 267 264 258 256 289 325 332 336 339 344 345 352 1 4
262 261 261 260 260 259 258 258 258 257 257 256 256 256 255 253 252 250 249 248 247 246 245 244 242 240 240 241 243 244 245 245 243 241 241 240 237 232 230 231 234 238 241 240 238 238 237 235 233 233 233 233 236 240 242 243 243 244 246 248 249 250 253 254 255 256 256 258 259 261 262 262 259 255 254 251 249 256 282 321 333 335 339 344 346 354 2 4
262 262 261 261 261 260 259 258 258 257 256 256 255 255 254 253 252 250 249 248 247 246 245 244 243 240 239 239 240 242 243 244 243 242 241 241 239 235 230 232 233 234 238 241 241 240 239 237 234 230 227 226 229 235 238 239 240 241 244 246 246 246 246 249 252 252 252 252 253 254 252 248 245 242 244 247 252 261 276 314 332 333 339 345 346 354 1 2
263 263 262 262 261 261 260 259 258 257 256 256 255 254 254 253 252 250 249 248 247 247 245 244 243 241 239 237 238 240 240 241 242 242 243 242 240 237 232 231 233 233 234 238 241 241 239 237 236 233 230 227 225 232 235 232 232 237 240 241 242 241 240 244 247 248 247 245 244 242 236 231 232 231 233 238 249 261 273 300 323 330 339 344 347 353 360 0
263 263 262 262 262 261 260 260 259 258 257 256 255 254 253 253 252 251 249 248 247 246 246 245 244 242 240 237 236 237 237 239 241 241 242 242 241 238 234 231 232 233 233 234 236 238 238 237 236 235 235 231 227 229 228 219 222 232 235 237 239 239 236 237 240 241 241 237 233 227 223 223 224 225 224 224 237 254 266 284 311 328 338 343 346 352 358 358
262 262 262 262 261 261 260 260 259 258 257 256 256 255 254 252 252 251 249 249 248 247 246 245 244 243 241 238 236 236 235 236 238 239 240 241 241 239 236 233 232 232 233 233 234 235 236 237 237 237 237 235 232 231 225 213 216 225 230 232 237 237 231 231 232 232 233 231 222 217 220 221 219 223 222 220 232 245 257 273 300 321 335 342 345 350 356 357
263 262 262 261 261 260 260 259 259 258 257 256 255 255 254 253 252 250 249 249 248 247 246 245 244 243 241 240 238 236 235 235 236 238 238 239 239 238 237 235 233 232 233 234 234 234 234 235 236 237 236 235 236 237 231 219 217 223 227 229 234 236 230 229 229 226 226 224 216 215 221 219 216 221 221 222 233 243 252 264 288 313 333 341 342 346 353 356
264 263 262 262 261 261 260 259 258 258 257 256 255 254 254 253 252 251 249 248 248 247 246 246 245 243 242 240 238 237 236 234 234 235 237 237 237 237 237 236 235 233 232 232 233 233 233 233 234 235 236 235 235 237 236 229 227 229 229 227 230 233 229 229 228 223 223 221 213 214 222 222 217 221 222 223 233 242 250 258 280 303 326 337 337 340 348 354
263 263 262 262 261 261 260 260 259 258 257 256 255 254 254 253 252 251 249 248 248 247 247 246 245 244 242 241 239 238 237 236 234 233 235 236 236 236 236 236 236 234 231 232 233 234 233 232 233 234 235 235 234 236 236 235 233 230 227 224 225 227 226 229 229 223 224 223 215 213 223 226 222 223 224 226 233 242 250 255 269 293 314 329 331 333 342 351
263 262 261 261 260 260 260 259 259 258 257 256 255 254 253 253 252 251 249 248 248 247 247 246 245 244 243 241 240 239 238 237 235 233 233 235 235 235 234 234 236 235 233 232 233 235 234 233 232 233 235 237 236 235 234 234 231 226 225 224 223 225 225 229 231 226 226 227 220 215 222 227 229 228 227 229 234 241 249 253 264 283 300 317 321 324 333 344
264 263 262 261 261 260 260 259 259 258 258 257 256 255 254 253 252 251 249 248 247 247 247 246 245 245 244 242 241 239 238 238 237 235 234 233 234 234 233 233 234 235 234 233 233 234 234 233 232 233 235 235 233 232 232 232 231 229 230 229 226 224 223 227 231 230 230 232 227 220 221 227 233 233 231 232 236 241 248 255 265 276 288 301 309 313 323 335
266 265 264 262 262 261 260 259 258 258 257 257 256 255 254 253 252 251 249 247 246 246 246 246 245 244 244 243 242 240 239 238 237 237 235 234 233 233 233 232 232 234 235 235 233 233 233 233 233 235 234 233 232 232 233 233 233 234 235 234 230 226 222 222 227 228 230 233 231 225 222 226 232 235 235 237 241 245 250 258 262 269 278 287 296 302 311 324
266 265 264 263 262 261 260 260 259 258 257 256 256 255 254 253 252 251 250 247 245 245 246 245 245 245 244 243 242 241 239 237 238 238 237 236 234 232 232 231 231 233 235 234 233 232 232 234 237 237 234 232 232 232 233 233 233 234 235 236 235 232 224 218 219 223 227 233 234 229 225 226 230 235 237 239 244 250 254 257 260 265 271 278 284 292 301 313
266 265 264 263 262 262 261 260 259 258 257 256 256 255 254 253 252 251 250 248 245 244 244 244 244 244 244 243 242 241 240 238 237 237 238 237 235 233 232 232 231 232 233 233 232 233 233 236 239 237 233 231 231 232 233 233 232 233 234 235 236 235 228 218 215 218 222 230 235 232 229 230 232 235 237 240 245 251 254 255 259 263 268 274 277 284 293 303
267 266 265 264 262 262 261 260 260 259 258 257 256 256 254 253 252 251 250 249 246 243 243 243 243 243 243 243 242 242 241 238 237 236 237 238 237 235 233 232 231 231 232 232 233 234 234 237 239 235 231 231 231 231 232 232 233 233 234 235 235 235 231 222 216 216 218 227 234 233 231 231 233 235 237 241 246 253 254 254 258 263 268 271 274 280 287 295
268 267 266 264 263 262 261 261 260 259 258 258 257 257 256 255 253 252 251 250 248 245 243 242 242 242 242 242 242 241 241 239 237 236 236 237 237 236 234 233 232 230 230 231 232 233 234 238 238 234 232 232 231 231 232 233 233 233 234 235 235 234 231 225 218 216 218 224 231 233 233 233 234 235 238 243 249 254 254 254 258 263 266 267 270 275 280 289
271 269 268 267 265 264 262 261 261 260 259 258 258 257 257 256 255 254 252 251 249 247 244 242 241 241 241 241 241 240 240 240 238 236 236 236 237 236 235 234 233 231 230 230 230 231 233 238 238 234 232 233 231 232 233 233 233 233 234 236 235 233 232 227 221 219 219 223 230 233 234 235 236 237 240 244 248 251 253 254 257 260 261 263 267 271 276 284
273 272 271 270 268 266 265 263 262 261 260 259 258 257 256 256 255 255 254 253 251 249 246 243 241 240 240 240 240 239 239 239 238 236 236 235 235 236 235 234 233 232 231 230 229 229 232 237 237 234 233 233 232 232 233 233 233 234 235 235 234 233 232 230 225 222 221 224 230 232 234 238 240 241 242 243 245 249 253 254 254 255 257 260 265 269 273 280
275 275 274 273 271 270 268 266 264 263 261 259 258 257 256 255 254 254 253 253 252 251 248 245 243 240 239 238 239 239 238 238 237 237 236 235 235 235 235 234 233 232 233 231 229 229 232 235 235 234 234 233 232 233 234 233 232 233 234 233 233 233 233 231 228 224 223 225 229 232 235 240 243 244 244 244 244 248 251 252 252 253 257 260 264 267 271 275
277 277 276 275 273 272 270 268 266 265 263 261 259 258 256 255 254 253 252 251 251 251 250 247 244 242 239 237 237 237 237 237 236 236 235 235 234 234 234 234 233 232 232 232 230 229 233 234 233 233 233 232 232 233 233 231 231 232 233 231 232 233 232 231 229 226 225 226 228 232 236 241 245 246 246 246 246 246 248 250 251 253 257 259 262 265 267 268
279 278 277 276 274 273 271 270 268 266 264 263 261 259 257 255 254 252 251 250 250 249 249 248 246 243 241 238 236 235 236 236 235 235 235 234 234 234 233 233 233 232 232 231 230 230 232 233 232 232 231 231 231 231 230 229 230 232 232 230 232 233 233 232 230 228 227 226 228 232 234 237 243 246 246 246 244 243 246 249 251 253 255 257 258 259 259 260
282 281 280 278 276 274 272 270 269 267 265 263 262 260 259 257 254 252 251 249 249 248 248 247 246 244 242 240 237 235 234 234 235 234 234 233 233 233 233 232 232 232 232 231 230 230 232 233 232 231 232 232 231 230 229 229 230 231 231 231 232 234 234 233 231 230 227 226 229 231 232 233 238 244 245 244 242 242 246 250 251 253 254 253 254 254 255 258
287 286 284 282 280 277 275 272 269 267 266 265 263 261 260 258 256 254 252 250 248 247 246 245 245 244 242 241 239 236 234 233 233 233 233 232 232 232 232 232 231 231 231 231 229 229 231 232 231 231 232 232 232 231 230 229 230 231 232 231 232 234 235 234 233 232 229 228 232 231 230 231 236 242 242 242 243 244 247 249 249 251 252 252 253 252 255 257
291 289 287 285 282 280 277 275 272 269 267 266 264 263 261 259 257 255 253 251 249 247 245 244 244 243 242 241 239 238 235 233 231 232 232 232 231 231 232 231 230 230 230 231 230 229 230 231 230 230 230 231 232 231 231 230 231 231 232 232 232 233 235 235 234 233 230 230 233 231 230 231 235 240 241 242 245 244 245 247 249 251 252 252 253 252 254 254
295 292 289 287 284 282 280 278 276 273 270 268 266 264 262 260 258 255 253 251 249 247 246 244 242 242 241 240 239 238 236 234 231 230 231 231 231 231 231 231 230 229 229 229 230 229 229 230 229 229 229 230 232 231 231 231 231 232 232 232 232 232 234 235 235 234 231 231 233 230 228 228 232 239 240 241 242 241 242 245 247 249 250 251 251 251 253 253
298 295 292 289 287 284 282 280 278 276 273 271 268 266 263 261 258 256 254 251 249 247 246 244 242 240 240 239 238 237 236 234 233 230 229 230 230 230 230 230 230 229 228 227 228 229 229 229 228 228 229 230 232 232 231 231 230 230 231 231 230 230 232 233 233 232 230 229 230 228 225 225 230 237 239 238 238 239 241 244 244 246 248 249 250 250 250 250
301 298 295 292 289 286 284 282 280 278 276 273 270 268 265 263 260 257 255 252 250 247 245 243 242 240 238 238 237 237 235 234 233 231 229 228 229 230 229 229 229 229 228 227 227 228 228 229 228 227 228 229 231 231 231 231 230 229 230 230 230 230 231 231 231 231 229 227 228 226 222 222 225 233 237 237 236 237 238 240 241 243 245 247 247 248 248 248
303 300 297 294 291 288 286 284 282 280 279 277 274 271 268 265 262 259 256 253 251 248 245 243 241 240 238 237 236 236 235 234 233 232 230 228 228 228 229 229 228 228 228 227 226 226 227 228 228 227 226 227 228 230 230 231 230 230 230 230 230 231 231 230 230 230 229 227 228 226 222 220 222 230 236 236 235 235 236 238 238 238 241 242 243 245 246 247
305 303 299 296 293 290 288 286 284 282 280 278 277 274 272 269 266 263 259 255 252 250 247 244 242 240 238 237 235 235 234 233 232 232 231 229 228 227 227 228 228 228 228 227 226 225 226 227 227 227 226 226 227 228 229 230 229 229 229 228 229 229 229 229 229 230 229 227 227 226 224 222 222 230 238 238 236 236 236 236 237 237 238 238 239 241 243 245
308 306 303 300 298 295 294 292 290 287 284 281 279 277 274 272 269 266 263 259 255 251 249 246 243 240 238 237 235 234 233 232 231 231 230 229 228 227 226 226 227 227 227 227 226 225 224 225 226 226 226 226 226 227 228 228 228 228 227 227 227 228 227 227 228 229 229 227 226 226 224 223 223 230 237 239 238 238 236 236 237 236 236 236 237 239 241 243
311 309 307 305 304 302 302 300 298 295 291 288 285 281 277 273 270 267 264 260 257 253 250 247 244 242 239 237 236 234 233 232 231 230 229 229 228 227 226 225 226 226 227 226 226 225 224 224 225 225 226 225 225 226 227 227 228 227 226 226 226 226 226 226 226 226 226 224 222 224 224 222 222 228 235 237 237 238 237 236 235 235 234 234 236 238 240 242
315 313 312 311 311 311 311 310 307 303 300 296 291 286 281 277 272 269 265 262 258 254 250 247 245 243 240 238 236 234 233 231 230 230 229 228 228 227 226 225 225 225 225 226 226 225 224 224 224 224 225 225 225 225 226 227 227 227 226 226 226 225 225 225 224 225 226 223 220 222 222 220 219 226 234 237 237 237 237 235 234 233 233 232 234 235 238 240
319 318 316 316 319 321 321 321 318 313 309 305 299 293 287 282 277 273 270 266 261 257 253 249 246 243 241 238 237 235 233 232 230 229 229 228 227 227 226 225 225 224 224 225 225 225 224 223 223 224 224 225 225 225 226 226 227 227 227 226 226 225 225 225 224 224 226 224 222 222 222 219 219 224 232 237 237 235 235 234 232 231 231 230 231 232 234 237
323 322 321 322 326 328 328 328 326 321 317 312 306 301 295 289 283 278 273 270 265 261 256 252 248 244 241 239 237 236 234 232 230 229 228 228 227 226 226 225 225 224 223 223 224 224 224 223 223 223 224 224 224 224 225 226 226 226 226 225 225 225 224 225 223 223 224 222 220 221 221 221 222 224 229 235 236 235 234 234 233 231 230 229 229 230 231 234
326 325 325 328 332 333 332 332 330 325 321 316 312 308 304 298 292 286 279 273 268 264 259 255 251 247 243 240 238 237 235 233 231 230 229 228 227 226 226 225 225 224 223 222 222 223 223 223 222 222 223 223 224 224 224 225 225 225 225 225 225 224 223 223 222 221 222 221 219 219 219 220 222 223 226 233 236 236 234 234 233 232 231 230 230 230 231 232
329 328 329 332 335 335 334 334 332 326 323 319 317 315 312 308 302 296 289 281 275 269 263 258 254 250 246 243 240 238 236 234 232 230 229 228 227 226 226 225 224 224 223 222 222 221 222 222 222 222 222 222 223 223 223 224 224 224 225 224 224 224 223 221 221 220 220 219 218 216 215 218 222 222 223 230 235 236 235 234 234 232 231 231 231 231 231 232
330 330 333 335 336 336 335 335 334 330 326 323 322 321 320 316 312 306 298 290 283 276 268 262 256 253 249 246 242 239 237 235 233 230 229 228 227 226 226 225 224 224 223 222 222 221 220 221 221 222 222 222 223 223 223 223 224 224 225 224 223 223 222 220 220 219 218 217 216 214 212 217 222 221 221 226 233 236 234 233 233 232 231 232 232 232 233 234
332 332 335 337 336 336 336 335 335 332 328 326 327 328 327 325 321 316 308 301 294 287 277 268 260 254 251 247 244 241 238 236 234 232 229 228 227 226 225 225 225 224 223 222 222 221 220 219 220 221 222 223 222 222 222 223 224 224 224 224 224 223 222 220 219 218 217 216 215 213 212 216 221 221 219 223 229 234 234 232 232 232 231 231 231 232 233 234
334 333 335 337 337 336 335 335 336 333 329 330 333 334 334 333 330 325 317 309 303 296 286 276 266 257 252 247 244 242 240 236 234 233 230 227 226 225 224 224 224 224 223 222 222 221 220 219 219 220 222 223 222 222 221 222 223 223 223 224 224 223 222 220 219 218 216 215 214 213 212 216 221 221 219 220 225 231 232 231 231 232 231 231 231 231 233 234
336 334 334 335 336 335 335 336 338 334 332 333 336 339 341 339 336 331 324 316 308 301 292 283 272 262 254 248 244 242 240 237 234 232 231 228 225 225 224 223 223 224 223 222 221 221 220 219 218 218 220 222 223 221 221 221 222 223 223 223 223 223 221 220 218 217 216 214 213 213 213 216 221 220 218 218 221 228 231 230 229 231 231 232 232 232 233 234
337 335 334 334 334 335 337 340 340 334 332 334 337 343 346 344 340 335 329 323 316 308 299 288 277 266 257 250 244 241 239 237 233 231 230 228 225 224 223 223 222 222 223 222 221 221 220 219 218 218 219 221 223 222 220 220 221 222 222 222 222 222 221 220 218 217 215 213 212 213 213 217 221 221 219 219 220 224 228 228 227 229 231 232 233 233 233 233
337 337 334 332 333 335 338 341 340 334 332 336 340 346 350 349 344 339 334 330 325 318 308 295 282 270 259 251 245 241 238 236 233 231 230 228 225 224 223 222 222 221 221 221 221 220 220 219 218 217 217 219 222 222 220 220 220 221 221 221 221 221 220 219 218 216 214 212 212 212 213 217 222 221 220 221 220 222 225 226 224 225 228 231 232 232 232 232
337 337 334 332 333 335 338 341 340 334 335 339 344 349 352 352 349 345 340 336 332 328 320 306 290 276 263 253 247 241 237 235 233 231 230 228 226 223 223 222 222 221 220 220 220 220 219 219 218 217 217 218 220 222 221 219 220 220 220 220 221 220 219 219 218 217 214 211 211 212 213 218 222 221 219 221 221 222 224 224 222 222 226 229 231 232 232 232
337 335 334 333 334 335 337 340 339 338 339 344 347 350 353 354 353 350 346 342 338 335 331 320 303 287 271 256 248 242 237 234 232 230 229 228 226 224 222 222 221 221 220 219 219 218 219 218 218 217 217 217 219 221 221 219 219 219 220 220 220 219 218 218 217 217 214 211 211 212 213 219 222 221 219 221 222 222 223 223 222 221 224 228 230 231 232 233
Height
10932 10933 10934 10935 10936 10937 10938 10939 10940 10941 10942 10943 10944 10945 10946 10948 10949 10950 10951 10952 10952 10953 10954 10955 10956 10956 10957 10957 10957 10958 10958 10958 10958 10960 10962 10963 10964 10965 10967 10969 10971 10973 10974 10976 10978 10981 10984 10985 10986 10987 10988 10990 10991 10992 10993 10994 10996 10997 10999 11000 11002 11003 11004 11005 11006 11007 11007 11007 11007 11008 11008 11008 11008 11008 11007 11007 11007 11006 11005 11004 11004 11003 11002 11001 11001 11000 10999 10997
10928 10928 10929 10930 10931 10932 10933 10934 10935 10936 10938 10939 10940 10941 10942 10944 10945 10946 10948 10949 10949 10950 10951 10952 10953 10954 10954 10955 10955 10956 10956 10956 10956 10958 10960 10960 10961 10962 10964 10966 10968 10969 10971 10972 10974 10977 10980 10982 10983 10984 10985 10987 10988 10989 10991 10992 10993 10995 10997 10998 10999 11001 11002 11003 11004 11005 11005 11005 11006 11006 11007 11007 11006 11006 11006 11006 11005 11005 11004 11003 11003 11002 11002 11001 11001 11000 10998 10996
10923 10923 10924 10925 10926 10927 10928 10929 10930 10931 10933 10934 10935 10937 10938 10939 10940 10942 10943 10945 10946 10946 10947 10948 10949 10951 10951 10952 10952 10953 10954 10954 10954 10955 10957 10957 10958 10960 10961 10963 10965 10966 10967 10968 10971 10974 10977 10979 10980 10982 10983 10984 10985 10987 10988 10989 10991 10992 10994 10996 10997 10998 11000 11001 11002 11003 11003 11003 11004 11004 11005 11005 11005 11005 11005 11005 11004 11004 11003 11002 11002 11002 11001 11001 11000 10999 10997 10995
10917 10918 10919 10919 10920 10921 10923 10924 10925 10926 10927 10929 10930 10932 10933 10935 10936 10937 10938 10940 10942 10942 10943 10944 10945 10947 10948 10948 10949 10950 10951 10951 10952 10953 10955 10955 10956 10957 10958 10960 10961 10962 10963 10965 10968 10971 10973 10976 10977 10979 10980 10981 10983 10984 10985 10987 10988 10990 10992 10994 10995 10996 10997 10999 10999 11000 11001 11001 11001 11002 11003 11003 11003 11004 11003 11003 11003 11002 11002 11002 11001 11001 11001 11000 11000 10999 10997 10994
10912 10912 10913 10914 10915 10916 10917 10918 10919 10920 10921 10923 10924 10926 10927 10929 10931 10932 10933 10935 10937 10938 10939 10940 10941 10943 10944 10945 10946 10947 10948 10949 10949 10951 10953 10953 10954 10954 10955 10957 10957 10958 10960 10961 10964 10967 10970 10972 10974 10976 10977 10979 10980 10981 10982 10984 10986 10987 10989 10991 10992 10993 10994 10996 10997 10997 10998 10998 10999 11000 11001 11001 11002 11002 11002 11002 11001 11001 11001 11001 11001 11001 11000 11000 11000 10998 10996 10994
10906 10906 10907 10907 10908 10910 10911 10912 10913 10913 10915 10917 10918 10919 10921 10923 10925 10926 10928 10929 10931 10933 10934 10935 10936 10938 10939 10941 10942 10943 10944 10945 10946 10948 10950 10950 10951 10952 10952 10954 10955 10955 10956 10958 10961 10964 10966 10968 10970 10973 10974 10975 10977 10978 10979 10981 10983 10985 10986 10988 10989 10990 10991 10993 10994 10994 10995 10996 10997 10998 10999 10999 11000 11000 11000 11000 11000 11000 11000 11000 11000 11000 11000 11000 10999 10998 10996 10994
10900 10900 10901 10901 10902 10903 10904 10906 10906 10907 10909 10910 10911 10912 10914 10916 10918 10920 10922 10923 10925 10927 10929 10930 10931 10932 10934 10936 10937 10939 10940 10941 10944 10946 10946 10947 10949 10950 10951 10951 10952 10953 10954 10956 10958 10961 10964 10965 10967 10969 10971 10972 10973 10974 10976 10978 10980 10982 10983 10985 10986 10986 10988 10989 10991 10992 10992 10993 10994 10996 10997 10998 10998 10999 10998 10999 10999 10999 10999 10999 11000 10999 10999 10999 10998 10997 10995 10994
10894 10894 10894 10895 10896 10897 10898 10899 10900 10901 10902 10904 10905 10905 10907 10909 10911 10913 10915 10917 10919 10921 10922 10924 10925 10927 10929 10931 10932 10934 10936 10937 10941 10943 10942 10944 10946 10947 10949 10949 10950 10950 10951 10953 10955 10957 10960 10961 10964 10966 10967 10969 10971 10972 10973 10975 10977 10979 10980 10981 10982 10983 10984 10986 10987 10989 10990 10991 10992 10993 10995 10996 10996 10997 10997 10997 10998 10998 10998 10998 10999 10999 10998 10998 10998 10997 10995 10994
10887 10888 10888 10888 10889 10890 10891 10892 10893 10894 10895 10897 10898 10899 10900 10902 10904 10906 10908 10910 10913 10914 10916 10918 10919 10921 10923 10925 10927 10930 10932 10934 10936 10938 10938 10940 10942 10944 10946 10946 10947 10948 10949 10951 10952 10953 10956 10959 10962 10964 10966 10968 10968 10969 10970 10972 10974 10975 10975 10976 10978 10979 10980 10982 10984 10986 10987 10988 10989 10991 10992 10993 10994 10995 10996 10996 10997 10997 10997 10998 10998 10998 10998 10998 10998 10996 10995 10994
10880 10881 10881 10881 10881 10883 10884 10885 10886 10887 10889 10891 10892 10892 10893 10895 10897 10899 10901 10903 10906 10907 10908 10911 10913 10915 10917 10920 10922 10925 10928 10930 10931 10933 10934 10935 10937 10940 10942 10943 10944 10945 10946 10948 10949 10950 10953 10957 10960 10962 10963 10964 10964 10964 10966 10968 10970 10971 10971 10973 10975 10976 10977 10978 10980 10983 10985 10986 10986 10988 10990 10991 10992 10993 10994 10995 10996 10996 10996 10997 10997 10997 10997 10997 10997 10996 10995 10994
10873 10873 10874 10874 10874 10875 10877 10878 10878 10879 10881 10883 10885 10885 10886 10887 10889 10891 10894 10896 10898 10900 10901 10904 10906 10908 10911 10913 10917 10920 10922 10923 10925 10927 10929 10930 10931 10935 10938 10940 10941 10943 10944 10945 10946 10948 10952 10955 10956 10957 10959 10960 10961 10961 10963 10966 10968 10968 10968 10970 10971 10973 10974 10975 10977 10980 10982 10984 10984 10986 10988 10989 10990 10992 10993 10994 10995 10995 10996 10996 10996 10997 10997 10997 10996 10996 10995 10994
10866 10866 10866 10866 10867 10867 10869 10870 10871 10872 10874 10876 10877 10877 10879 10880 10881 10884 10887 10890 10891 10892 10894 10897 10899 10901 10903 10907 10911 10913 10914 10917 10919 10922 10924 10925 10926 10929 10933 10936 10937 10939 10941 10942 10944 10946 10949 10950 10952 10954 10955 10957 10959 10959 10961 10965 10965 10964 10965 10966 10967 10969 10972 10973 10975 10977 10979 10981 10982 10984 10986 10987 10989 10990 10992 10993 10994 10995 10995 10995 10996 10996 10996 10996 10996 10995 10995 10994
10858 10858 10858 10858 10858 10859 10860 10861 10863 10864 10865 10867 10869 10870 10871 10873 10874 10876 10880 10882 10884 10885 10887 10889 10891 10893 10896 10901 10905 10905 10907 10911 10914 10916 10917 10918 10920 10922 10926 10931 10932 10934 10936 10938 10940 10942 10945 10946 10948 10951 10952 10954 10956 10957 10959 10963 10963 10962 10963 10964 10964 10965 10969 10971 10972 10975 10976 10978 10981 10982 10984 10985 10987 10989 10991 10992 10993 10994 10994 10995 10995 10996 10996 10996 10996 10995 10995 10995
10850 10851 10850 10850 10849 10850 10851 10852 10853 10855 10856 10858 10860 10861 10863 10865 10866 10868 10872 10875 10876 10878 10880 10882 10883 10885 10888 10894 10897 10898 10900 10904 10907 10908 10910 10911 10914 10916 10920 10924 10927 10929 10931 10934 10937 10939 10941 10943 10945 10947 10949 10950 10952 10953 10956 10960 10961 10960 10961 10962 10960 10961 10966 10968 10970 10972 10974 10976 10979 10981 10982 10984 10986 10988 10989 10991 10991 10993 10994 10994 10995 10995 10995 10995 10995 10995 10995 10995
10841 10842 10842 10842 10841 10841 10842 10843 10844 10845 10847 10848 10850 10852 10853 10855 10857 10860 10864 10867 10868 10870 10872 10874 10875 10877 10881 10885 10889 10891 10892 10896 10899 10900 10902 10904 10907 10910 10914 10918 10921 10924 10927 10930 10932 10935 10937 10940 10941 10943 10944 10947 10949 10950 10953 10956 10958 10958 10959 10959 10957 10959 10963 10966 10967 10970 10972 10974 10977 10979 10980 10982 10985 10986 10988 10989 10990 10991 10992 10994 10994 10994 10995 10994 10994 10994 10994 10995
10832 10832 10833 10833 10831 10831 10832 10833 10834 10835 10837 10838 10840 10842 10843 10845 10847 10850 10855 10858 10860 10862 10864 10865 10866 10869 10872 10876 10880 10883 10884 10888 10890 10892 10895 10897 10901 10904 10908 10911 10914 10918 10921 10924 10927 10930 10933 10935 10937 10938 10941 10944 10946 10947 10949 10952 10954 10955 10955 10955 10955 10957 10961 10963 10964 10967 10970 10972 10975 10977 10978 10980 10983 10984 10986 10988 10989 10990 10991 10993 10993 10993 10994 10993 10994 10994 10994 10994
10820 10821 10822 10822 10821 10821 10822 10822 10823 10825 10826 10828 10830 10832 10833 10835 10837 10840 10845 10849 10851 10852 10854 10856 10857 10860 10864 10867 10872 10875 10876 10878 10881 10885 10888 10890 10894 10897 10901 10905 10908 10911 10916 10919 10922 10925 10928 10930 10933 10935 10937 10940 10942 10944 10946 10947 10948 10950 10949 10950 10952 10955 10959 10960 10961 10965 10968 10969 10973 10975 10976 10977 10980 10982 10984 10986 10987 10988 10990 10991 10992 10993 10993 10993 10993 10993 10993 10994
10808 10809 10810 10810 10810 10809 10811 10811 10812 10813 10815 10816 10819 10821 10823 10825 10826 10829 10835 10840 10841 10843 10844 10846 10848 10851 10855 10859 10862 10866 10867 10869 10873 10877 10881 10883 10886 10890 10894 10899 10902 10906 10910 10914 10918 10920 10923 10925 10928 10931 10934 10936 10937 10939 10939 10939 10942 10945 10945 10948 10952 10955 10958 10959 10960 10964 10965 10967 10971 10973 10974 10975 10978 10980 10983 10984 10986 10987 10988 10990 10991 10992 10992 10992 10992 10993 10993 10993
10797 10797 10798 10800 10799 10798 10799 10800 10800 10801 10802 10804 10807 10809 10812 10814 10816 10818 10823 10830 10832 10832 10834 10836 10838 10841 10845 10849 10852 10856 10859 10861 10864 10868 10873 10875 10877 10882 10887 10892 10896 10899 10904 10908 10911 10914 10915 10918 10923 10927 10928 10927 10928 10930 10932 10935 10939 10943 10944 10948 10952 10955 10957 10958 10959 10962 10964 10965 10968 10971 10973 10974 10975 10978 10980 10982 10984 10985 10986 10988 10990 10990 10991 10991 10992 10992 10992 10992
10786 10786 10787 10788 10788 10787 10787 10788 10789 10789 10790 10791 10793 10796 10798 10801 10803 10805 10810 10818 10822 10822 10823 10826 10828 10831 10835 10838 10841 10846 10850 10854 10856 10859 10863 10865 10869 10875 10879 10885 10890 10894 10898 10901 10903 10906 10908 10914 10919 10918 10916 10918 10923 10927 10931 10934 10937 10939 10943 10946 10949 10952 10955 10957 10959 10961 10962 10962 10964 10968 10971 10972 10973 10975 10978 10981 10981 10982 10984 10987 10988 10989 10989 10990 10991 10991 10991 10992
10775 10774 10774 10775 10775 10775 10775 10775 10776 10777 10778 10778 10780 10782 10784 10787 10789 10791 10795 10802 10810 10812 10812 10815 10818 10820 10824 10827 10830 10835 10839 10845 10848 10850 10854 10856 10861 10866 10871 10877 10882 10888 10890 10891 10895 10899 10904 10911 10910 10905 10909 10915 10920 10924 10927 10930 10932 10936 10940 10943 10945 10948 10951 10954 10957 10959 10960 10959 10961 10965 10968 10970 10971 10973 10976 10978 10978 10979 10983 10985 10986 10987 10988 10989 10990 10990 10991 10991
10765 10763 10762 10762 10763 10763 10763 10763 10762 10764 10765 10765 10767 10768 10770 10772 10774 10777 10780 10785 10794 10800 10800 10803 10807 10809 10813 10816 10820 10823 10828 10835 10840 10843 10845 10847 10852 10857 10862 10868 10874 10879 10880 10883 10889 10893 10901 10903 10894 10896 10906 10911 10914 10919 10922 10925 10928 10932 10936 10938 10941 10943 10945 10950 10954 10956 10958 10957 10958 10962 10965 10967 10970 10972 10974 10974 10975 10978 10981 10983 10984 10985 10987 10988 10989 10989 10989 10990
10752 10752 10750 10749 10751 10752 10751 10750 10750 10751 10752 10753 10754 10755 10756 10758 10760 10765 10767 10768 10777 10787 10789 10791 10795 10799 10801 10804 10808 10812 10816 10823 10830 10834 10835 10836 10841 10846 10853 10859 10864 10869 10872 10879 10883 10887 10894 10888 10880 10893 10903 10903 10909 10914 10916 10920 10924 10928 10931 10933 10935 10936 10939 10945 10950 10953 10955 10955 10955 10959 10962 10964 10967 10969 10970 10971 10973 10977 10979 10981 10981 10983 10985 10986 10987 10988 10988 10989
10739 10739 10737 10736 10738 10740 10739 10737 10738 10739 10740 10742 10743 10743 10743 10744 10747 10751 10754 10755 10760 10770 10775 10778 10783 10786 10789 10792 10797 10800 10804 10811 10818 10822 10825 10827 10831 10836 10844 10848 10852 10859 10865 10870 10873 10879 10883 10873 10874 10893 10897 10896 10904 10907 10911 10916 10919 10922 10925 10927 10928 10929 10933 10939 10945 10949 10952 10953 10953 10955 10959 10962 10964 10966 10967 10969 10973 10975 10976 10978 10979 10981 10983 10984 10985 10987 10987 10987
10726 10725 10724 10722 10723 10726 10726 10725 10724 10725 10727 10730 10731 10731 10731 10732 10734 10736 10740 10742 10745 10752 10759 10764 10770 10774 10777 10780 10784 10788 10792 10797 10804 10810 10814 10817 10820 10825 10832 10836 10842 10850 10855 10859 10863 10870 10871 10865 10873 10887 10887 10890 10899 10902 10907 10910 10911 10916 10919 10919 10920 10922 10927 10934 10941 10946 10949 10951 10950 10953 10957 10959 10961 10964 10966 10969 10972 10972 10973 10975 10977 10979 10981 10982 10984 10985 10985 10986
10713 10711 10710 10709 10708 10709 10710 10710 10709 10710 10713 10715 10717 10718 10718 10720 10721 10722 10726 10728 10730 10736 10741 10749 10757 10761 10764 10767 10769 10775 10779 10783 10790 10797 10802 10805 10809 10813 10818 10826 10833 10838 10842 10847 10852 10860 10862 10859 10868 10878 10880 10885 10891 10896 10900 10901 10906 10911 10909 10908 10911 10916 10922 10928 10935 10941 10945 10948 10948 10951 10954 10955 10958 10961 10964 10967 10969 10969 10969 10971 10974 10976 10978 10980 10982 10983 10984 10985
10700 10698 10697 10695 10693 10693 10694 10693 10693 10694 10696 10698 10701 10703 10703 10706 10707 10708 10712 10714 10715 10720 10725 10734 10740 10745 10751 10754 10754 10759 10763 10768 10777 10784 10788 10793 10798 10802 10807 10814 10821 10827 10831 10835 10844 10855 10854 10852 10862 10870 10871 10877 10884 10889 10890 10891 10898 10899 10895 10901 10907 10911 10916 10921 10929 10937 10941 10943 10945 10949 10952 10953 10955 10957 10960 10964 10967 10967 10966 10967 10971 10973 10975 10978 10980 10981 10982 10983
10688 10685 10683 10681 10678 10677 10677 10676 10676 10677 10678 10680 10684 10685 10687 10690 10692 10694 10697 10699 10701 10704 10710 10717 10723 10728 10735 10737 10738 10741 10745 10755 10763 10768 10774 10780 10785 10790 10795 10802 10808 10815 10820 10825 10838 10847 10841 10842 10854 10858 10860 10869 10875 10876 10876 10881 10888 10885 10885 10897 10902 10902 10909 10915 10923 10932 10936 10940 10945 10949 10950 10951 10951 10952 10956 10961 10964 10964 10961 10963 10968 10970 10973 10976 10977 10979 10980 10981
10675 10672 10669 10665 10663 10663 10662 10660 10659 10659 10660 10663 10665 10666 10670 10673 10675 10678 10680 10683 10686 10688 10694 10700 10705 10712 10715 10716 10721 10725 10730 10739 10747 10753 10760 10766 10772 10777 10783 10790 10796 10802 10809 10817 10827 10832 10828 10832 10842 10846 10852 10861 10862 10861 10866 10875 10879 10875 10881 10893 10895 10896 10903 10910 10919 10926 10931 10939 10944 10946 10947 10949 10946 10945 10952 10957 10959 10957 10955 10960 10966 10967 10970 10973 10974 10976 10977 10978
10662 10659 10655 10651 10648 10647 10646 10645 10644 10642 10642 10645 10647 10648 10651 10655 10658 10661 10663 10665 10669 10673 10677 10683 10687 10693 10696 10698 10705 10710 10716 10724 10730 10737 10745 10750 10758 10764 10769 10776 10783 10790 10798 10806 10815 10820 10819 10822 10831 10840 10848 10851 10849 10852 10859 10866 10868 10867 10876 10887 10889 10893 10898 10905 10914 10920 10928 10938 10940 10940 10942 10944 10942 10942 10947 10949 10949 10951 10953 10959 10962 10964 10967 10969 10971 10973 10974 10976
10650 10646 10643 10638 10634 10631 10630 10629 10628 10628 10626 10627 10630 10632 10634 10637 10640 10643 10645 10648 10654 10657 10659 10664 10669 10674 10678 10682 10687 10693 10701 10708 10714 10721 10728 10735 10743 10749 10754 10762 10771 10778 10785 10794 10804 10809 10808 10812 10824 10834 10839 10839 10839 10845 10851 10857 10860 10863 10872 10880 10884 10889 10892 10900 10909 10916 10929 10936 10932 10933 10937 10941 10941 10939 10940 10939 10941 10948 10952 10955 10957 10960 10963 10965 10967 10970 10971 10973
10638 10634 10630 10626 10621 10617 10615 10613 10612 10614 10614 10613 10615 10616 10618 10620 10622 10625 10627 10631 10636 10639 10640 10646 10651 10655 10661 10664 10669 10676 10684 10691 10698 10705 10711 10719 10727 10734 10740 10749 10758 10766 10774 10783 10791 10796 10798 10804 10814 10822 10825 10826 10829 10836 10843 10849 10854 10859 10867 10872 10878 10884 10887 10895 10904 10913 10925 10927 10923 10927 10933 10939 10939 10932 10933 10934 10938 10945 10947 10949 10954 10956 10958 10961 10963 10966 10968 10971
10627 10622 10618 10613 10609 10606 10603 10600 10598 10599 10600 10600 10600 10601 10602 10604 10605 10608 10610 10614 10619 10621 10623 10629 10633 10637 10642 10646 10651 10658 10665 10673 10682 10689 10696 10703 10711 10719 10726 10735 10744 10752 10763 10771 10777 10783 10788 10792 10801 10809 10813 10817 10821 10828 10837 10843 10849 10854 10859 10864 10871 10878 10882 10890 10898 10906 10915 10916 10916 10922 10930 10937 10934 10925 10927 10929 10931 10939 10942 10945 10950 10951 10954 10957 10959 10963 10965 10968
10616 10611 10606 10602 10598 10594 10591 10589 10586 10585 10586 10587 10586 10586 10587 10588 10590 10592 10594 10597 10601 10605 10608 10612 10615 10619 10624 10628 10634 10640 10648 10656 10664 10673 10682 10687 10694 10703 10711 10720 10729 10737 10749 10757 10761 10769 10774 10779 10791 10800 10806 10811 10815 10821 10829 10833 10837 10843 10849 10853 10860 10869 10875 10882 10888 10894 10903 10906 10908 10917 10927 10934 10929 10919 10918 10921 10925 10934 10939 10941 10945 10947 10950 10953 10956 10960 10962 10964
10605 10600 10596 10592 10589 10584 10581 10579 10576 10574 10573 10574 10574 10573 10573 10574 10576 10577 10580 10582 10585 10589 10592 10595 10598 10603 10606 10611 10616 10622 10630 10640 10648 10656 10665 10673 10679 10687 10696 10705 10713 10722 10733 10742 10749 10757 10763 10770 10782 10790 10797 10803 10805 10810 10817 10820 10826 10834 10839 10844 10854 10864 10867 10870 10876 10883 10891 10897 10901 10913 10925 10927 10923 10912 10906 10913 10923 10931 10934 10936 10941 10944 10946 10950 10954 10956 10958 10959
10596 10592 10587 10583 10580 10576 10572 10570 10567 10565 10563 10562 10562 10562 10561 10562 10563 10564 10566 10569 10571 10573 10577 10580 10583 10587 10591 10595 10599 10605 10613 10623 10632 10639 10647 10657 10664 10671 10680 10689 10698 10707 10715 10726 10738 10746 10753 10760 10770 10778 10785 10791 10793 10798 10805 10809 10818 10826 10830 10841 10852 10855 10856 10861 10869 10875 10883 10892 10898 10909 10918 10917 10915 10905 10896 10907 10920 10925 10929 10932 10935 10940 10943 10947 10950 10951 10954 10956
10586 10583 10579 10575 10571 10568 10565 10562 10559 10558 10556 10554 10553 10552 10551 10551 10551 10552 10554 10556 10558 10560 10562 10565 10570 10572 10576 10579 10583 10589 10596 10604 10614 10621 10628 10640 10649 10656 10665 10673 10682 10691 10700 10712 10724 10733 10743 10750 10757 10765 10773 10780 10784 10789 10794 10799 10808 10814 10821 10834 10839 10838 10844 10853 10862 10868 10877 10889 10894 10902 10910 10911 10911 10902 10892 10902 10916 10919 10924 10928 10931 10936 10939 10943 10946 10947 10949 10951
10578 10575 10571 10567 10563 10560 10558 10555 10552 10550 10548 10547 10545 10544 10542 10542 10541 10541 10542 10544 10546 10548 10549 10551 10555 10558 10561 10564 10568 10574 10580 10587 10596 10603 10611 10623 10632 10640 10650 10657 10666 10675 10685 10697 10708 10720 10732 10737 10743 10753 10760 10768 10775 10779 10782 10787 10795 10802 10810 10820 10822 10826 10837 10847 10855 10863 10872 10884 10890 10895 10902 10907 10909 10900 10888 10897 10909 10912 10918 10923 10927 10932 10936 10939 10941 10943 10945 10947
10572 10569 10564 10560 10556 10553 10551 10549 10546 10543 10541 10540 10538 10536 10534 10533 10531 10530 10531 10532 10533 10535 10537 10538 10540 10543 10547 10551 10554 10559 10564 10571 10579 10586 10594 10605 10614 10623 10633 10642 10651 10660 10670 10682 10693 10706 10717 10722 10731 10741 10747 10755 10763 10766 10770 10776 10783 10790 10799 10806 10810 10819 10830 10838 10847 10856 10863 10875 10882 10887 10895 10902 10904 10894 10884 10890 10900 10905 10912 10918 10923 10928 10932 10935 10937 10939 10941 10943
10566 10563 10559 10554 10551 10548 10545 10543 10540 10537 10535 10533 10531 10528 10527 10525 10523 10521 10521 10521 10522 10523 10524 10525 10526 10529 10533 10536 10539 10543 10548 10555 10562 10569 10578 10588 10597 10606 10617 10625 10635 10646 10656 10667 10678 10691 10702 10710 10719 10728 10734 10741 10749 10754 10760 10766 10772 10779 10788 10796 10802 10812 10822 10829 10841 10850 10857 10868 10875 10879 10888 10894 10895 10888 10880 10883 10892 10899 10905 10912 10918 10923 10927 10930 10933 10935 10937 10939
10560 10556 10553 10550 10546 10543 10539 10537 10533 10531 10529 10526 10524 10522 10520 10518 10517 10515 10513 10512 10512 10512 10512 10513 10514 10516 10519 10522 10524 10528 10533 10540 10547 10554 10562 10572 10581 10590 10600 10609 10619 10630 10641 10652 10662 10675 10687 10697 10707 10714 10719 10728 10737 10744 10749 10755 10761 10769 10779 10788 10796 10808 10816 10823 10836 10846 10853 10864 10872 10875 10883 10887 10887 10884 10878 10877 10885 10892 10898 10905 10912 10917 10921 10925 10928 10931 10933 10935
10555 10551 10548 10545 10541 10538 10535 10532 10528 10526 10523 10521 10518 10516 10514 10512 10510 10509 10507 10505 10503 10502 10502 10502 10502 10503 10506 10509 10511 10514 10518 10525 10532 10539 10547 10557 10565 10575 10585 10594 10604 10614 10626 10636 10647 10659 10671 10683 10693 10700 10707 10717 10725 10731 10735 10742 10750 10758 10769 10779 10789 10799 10808 10817 10831 10841 10846 10857 10866 10870 10877 10882 10881 10881 10877 10872 10876 10884 10892 10899 10906 10911 10916 10919 10922 10926 10929 10931
10551 10547 10543 10540 10537 10534 10531 10528 10524 10521 10519 10516 10513 10511 10508 10506 10503 10502 10499 10497 10495 10494 10492 10492 10491 10492 10494 10496 10498 10501 10505 10511 10518 10524 10533 10542 10551 10560 10569 10579 10589 10598 10610 10621 10632 10644 10656 10668 10678 10685 10694 10703 10708 10713 10722 10730 10738 10747 10759 10770 10780 10789 10800 10812 10825 10833 10840 10850 10858 10864 10873 10875 10872 10874 10873 10867 10867 10877 10886 10893 10900 10906 10910 10914 10917 10921 10924 10926
10546 10542 10539 10536 10533 10530 10527 10524 10521 10518 10515 10512 10509 10506 10503 10500 10497 10494 10492 10489 10487 10485 10483 10482 10482 10482 10483 10485 10487 10490 10494 10499 10505 10511 10518 10527 10537 10546 10554 10564 10574 10583 10595 10606 10617 10630 10642 10653 10663 10671 10678 10684 10687 10696 10709 10718 10726 10738 10749 10760 10771 10780 10793 10806 10815 10823 10832 10842 10851 10859 10867 10866 10861 10865 10868 10863 10862 10870 10880 10887 10893 10899 10905 10908 10912 10915 10919 10921
10542 10538 10535 10532 10529 10526 10523 10521 10518 10514 10511 10508 10505 10502 10498 10494 10491 10488 10484 10481 10478 10476 10474 10474 10473 10472 10473 10474 10476 10479 10482 10487 10493 10499 10506 10514 10522 10532 10540 10549 10559 10569 10579 10591 10602 10615 10628 10640 10650 10655 10660 10666 10673 10687 10703 10711 10720 10731 10741 10751 10762 10772 10784 10797 10805 10814 10825 10835 10843 10853 10861 10856 10851 10856 10862 10860 10858 10862 10872 10880 10885 10892 10898 10903 10907 10910 10914 10917
10538 10534 10532 10529 10525 10522 10519 10516 10514 10510 10507 10504 10500 10497 10494 10490 10486 10482 10477 10474 10471 10467 10465 10464 10464 10463 10463 10464 10466 10468 10471 10477 10481 10487 10494 10501 10508 10518 10526 10534 10545 10554 10565 10576 10587 10599 10613 10626 10635 10640 10646 10654 10665 10680 10696 10704 10711 10722 10732 10742 10753 10764 10777 10788 10797 10808 10819 10829 10838 10848 10853 10847 10841 10848 10855 10855 10853 10855 10863 10873 10879 10885 10892 10896 10901 10905 10908 10912
10535 10531 10528 10526 10523 10519 10515 10512 10509 10506 10503 10499 10496 10493 10489 10486 10482 10477 10472 10468 10464 10461 10457 10455 10455 10454 10454 10455 10456 10458 10462 10467 10471 10476 10482 10488 10496 10505 10513 10521 10531 10540 10551 10563 10573 10585 10600 10611 10619 10627 10635 10642 10652 10668 10683 10691 10699 10710 10722 10733 10743 10756 10769 10780 10792 10803 10812 10823 10833 10841 10845 10839 10832 10838 10845 10847 10848 10850 10857 10868 10874 10879 10886 10890 10895 10899 10902 10907
10533 10528 10525 10522 10520 10517 10513 10510 10506 10502 10499 10495 10492 10489 10485 10481 10477 10473 10467 10462 10458 10455 10451 10447 10446 10446 10446 10446 10447 10450 10452 10456 10461 10465 10470 10476 10484 10491 10499 10507 10517 10527 10538 10550 10560 10572 10585 10595 10605 10616 10624 10629 10639 10656 10671 10680 10689 10699 10711 10722 10733 10746 10760 10773 10786 10796 10805 10818 10826 10832 10837 10830 10822 10827 10836 10840 10845 10848 10853 10863 10870 10875 10880 10884 10889 10894 10898 10902
10530 10526 10522 10519 10517 10514 10511 10507 10503 10499 10495 10492 10489 10485 10481 10476 10472 10468 10463 10457 10453 10448 10444 10441 10439 10438 10438 10438 10439 10441 10444 10447 10451 10454 10459 10465 10472 10479 10486 10494 10504 10514 10524 10536 10548 10558 10569 10580 10592 10605 10614 10620 10628 10643 10658 10668 10677 10687 10700 10712 10722 10735 10751 10765 10778 10788 10798 10810 10817 10822 10827 10820 10810 10817 10829 10836 10842 10845 10849 10857 10866 10871 10875 10878 10883 10888 10892 10896
10527 10523 10520 10516 10513 10510 10508 10504 10501 10497 10492 10488 10485 10481 10477 10473 10467 10462 10457 10452 10447 10443 10439 10435 10432 10431 10431 10430 10432 10434 10436 10438 10442 10446 10450 10456 10462 10468 10475 10483 10492 10501 10511 10523 10535 10545 10556 10568 10581 10594 10604 10611 10616 10627 10642 10655 10665 10677 10689 10701 10712 10727 10743 10756 10769 10778 10789 10802 10808 10812 10817 10809 10799 10810 10826 10833 10837 10841 10844 10851 10860 10864 10867 10871 10876 10881 10885 10889
10523 10520 10517 10514 10510 10507 10504 10501 10498 10494 10489 10485 10481 10478 10474 10469 10464 10457 10451 10446 10442 10437 10433 10430 10427 10425 10425 10424 10425 10427 10429 10431 10435 10439 10443 10447 10453 10459 10465 10472 10481 10489 10499 10511 10522 10533 10544 10557 10570 10581 10592 10601 10605 10613 10628 10644 10655 10666 10678 10690 10703 10718 10734 10748 10759 10769 10781 10793 10798 10801 10807 10799 10791 10805 10824 10829 10832 10837 10839 10846 10853 10858 10861 10864 10868 10873 10877 10883
10519 10516 10513 10510 10507 10504 10501 10499 10495 10491 10487 10482 10478 10475 10471 10467 10461 10455 10448 10442 10437 10433 10429 10425 10422 10420 10420 10419 10419 10420 10422 10425 10428 10432 10435 10439 10445 10451 10456 10463 10471 10480 10488 10498 10510 10523 10534 10546 10558 10569 10582 10592 10595 10601 10616 10633 10644 10655 10669 10681 10693 10709 10725 10738 10748 10759 10772 10784 10788 10794 10798 10789 10785 10803 10819 10822 10827 10832 10835 10840 10847 10852 10854 10857 10861 10866 10871 10877